Salvador Airport, Brazil

12:22 AM -03 en Octubre 16, 2018 (GMT -0300)
DEP. L. E. Magalhaes International

Tiempo Historia de SBSV - Marzo, 2018

Change the Weather History Date:

Miércoles, Marzo 14, 2018

  Actual Average Record
Temperature  
Temperatura media 83 ° F -  
Temperatura máxima 89 ° F 85 ° F 91 ° F (1998)
Temperatura mínima 77 ° F 75 ° F 73 ° F (2006)
Cooling Degree Days 18    
Growing Degree Days 33 (Base 50)    
Moisture  
Punto de rocío 75 ° F    
Average Humidity 80    
Maximum Humidity 94    
Minimum Humidity 57    
Precipitación  
Precipitación 0.00 pul - - ()
Presión al nivel del mar  
Presión al nivel del mar 29.90 pul    
Viento  
Velocidad del viento 8 mph ()    
Velocidad máxima del viento 21 mph    
Max Gust Speed -    
Visibilidad 7.8 Millas    
Eventos      
Averages and records for this station are not official NWS values.
T = Trace of Precipitation, MM = Missing Value Source: Averaged Metar Reports

Daily Weather History Graph

Daily Weather History Graph

Search for Another Location

Airport or City:

Astronomía

Mar. 14, 2018 Salida Puesta
Hora real 5:36 AM -03 5:47 PM -03
Crepúsculo civil 5:15 AM -03 6:09 PM -03
Crepúsculo náutico 4:50 AM -03 6:33 PM -03
Crepúsculo astronómico 4:26 AM -03 6:58 PM -03
Luna 3:03 AM -03 (3/14) 3:56 PM -03 (3/14)
Horas de luz 12h 53m
Horas de luz
12h 11m
Creciente menguante, 9% of the Moon is Illuminated
Mar 14
Creciente menguante
Mar 17
Nueva
Mar 24
Cuarto creciente
Mar 31
Luna llena
Abr 8
Cuarto menguante

Hourly Weather History & Observations

Hora (-03) Temp. Índice de calor Punto de rocío Humedad Presión Visibilidad Wind Dir Velocidad del viento Velocidad de ráfagas Precip Eventos Condiciones
12:00 AM 80 ° F - 76 ° F 84% 29.92 pul 12 mi NNE 4.6 mph - -   Nubes dispersas
12:00 AM 80.6 ° F 87.1 ° F 77.0 ° F 89% 29.92 pul 6.2 mi NNE 4.6 mph - N/A   Muy nublado
1:00 AM 78.8 ° F - 75.2 ° F 89% 29.89 pul 6.2 mi NNE 4.6 mph - N/A   Nubes dispersas
2:00 AM 78.8 ° F - 75.2 ° F 89% 29.89 pul 6.2 mi NNE 5.8 mph - N/A   Nubes dispersas
3:00 AM 78 ° F - 75 ° F 89% 29.88 pul 12 mi Norte 4.6 mph - -   Nubes dispersas
3:00 AM 78.8 ° F - 75.2 ° F 89% 29.89 pul 6.2 mi Norte 4.6 mph - N/A   Nubes dispersas
4:00 AM 78.8 ° F - 75.2 ° F 89% 29.89 pul 6.2 mi NNE 4.6 mph - N/A   Nubes dispersas
5:00 AM 77.0 ° F - 75.2 ° F 94% 29.89 pul 6.2 mi NNE 3.5 mph - N/A   Nubes dispersas
6:00 AM 78 ° F - 75 ° F 88% 29.91 pul 12 mi Norte 3.5 mph - -   Nubes dispersas
6:00 AM 77.0 ° F - 75.2 ° F 94% 29.92 pul 6.2 mi Norte 3.5 mph - N/A   Parcialmente nublado
7:00 AM 78.8 ° F - 75.2 ° F 89% 29.92 pul 6.2 mi NNE 5.8 mph - N/A   Parcialmente nublado
8:00 AM 82.4 ° F 88.2 ° F 73.4 ° F 74% 29.95 pul 6.2 mi Norte 10.4 mph - N/A   Nubes dispersas
9:00 AM 86 ° F - 73 ° F 57% 29.97 pul 12 mi NNE 9.2 mph - -   Parcialmente nublado
9:00 AM 86.0 ° F 93.4 ° F 73.4 ° F 66% 29.95 pul 6.2 mi NNE 9.2 mph - N/A   Nubes dispersas
10:00 AM 87.8 ° F 97.6 ° F 75.2 ° F 66% 29.95 pul 6.2 mi Este 11.5 mph - N/A   Nubes dispersas
11:00 AM 89.6 ° F 99.8 ° F 75.2 ° F 62% 29.95 pul 6.2 mi Este 16.1 mph - N/A   Nubes dispersas
12:00 PM 88 ° F - 75 ° F 58% 29.93 pul 12 mi ENE 19.6 mph - -   Parcialmente nublado
12:00 PM 87.8 ° F 97.6 ° F 75.2 ° F 66% 29.92 pul 6.2 mi ENE 19.6 mph - N/A   Nubes dispersas
1:00 PM 87.8 ° F 97.6 ° F 75.2 ° F 66% 29.89 pul 6.2 mi ENE 20.7 mph - N/A   Nubes dispersas
2:00 PM 87.8 ° F 97.6 ° F 75.2 ° F 66% 29.86 pul 6.2 mi ENE 19.6 mph - N/A   Parcialmente nublado
3:00 PM 86 ° F - 76 ° F 65% 29.88 pul 12 mi Este 17.3 mph - -   Nubes dispersas
3:00 PM 86.0 ° F 95.1 ° F 75.2 ° F 70% 29.86 pul 6.2 mi Este 17.3 mph - N/A   Parcialmente nublado
4:00 PM 84.2 ° F 94.1 ° F 77.0 ° F 79% 29.86 pul 6.2 mi Este 16.1 mph - N/A   Parcialmente nublado
5:00 PM 82.4 ° F 90.9 ° F 77.0 ° F 84% 29.86 pul 6.2 mi ENE 15.0 mph - N/A   Parcialmente nublado
6:00 PM 81 ° F - 76 ° F 82% 29.88 pul 12 mi ENE 12.7 mph - -   Nubes dispersas
6:00 PM 80.6 ° F 87.1 ° F 77.0 ° F 89% 29.86 pul 6.2 mi ENE 12.7 mph - N/A   Parcialmente nublado
7:00 PM 80.6 ° F 87.1 ° F 77.0 ° F 89% 29.89 pul 6.2 mi ENE 11.5 mph - N/A   Parcialmente nublado
8:00 PM 80.6 ° F 87.1 ° F 77.0 ° F 89% 29.89 pul 6.2 mi NE 10.4 mph - N/A   Parcialmente nublado
9:00 PM 81 ° F - 76 ° F 81% 29.92 pul 12 mi NE 9.2 mph - -  
9:00 PM 80.6 ° F 87.1 ° F 77.0 ° F 89% 29.92 pul - NE 9.2 mph - N/A   Despejado
10:00 PM 80.6 ° F 86.2 ° F 75.2 ° F 84% 29.92 pul - NE 8.1 mph - N/A   Despejado
11:00 PM 80.6 ° F 86.2 ° F 75.2 ° F 84% 29.92 pul - NE 6.9 mph - N/A   Despejado